This demonstration page uses our WeatherBlox Daily Observations layout. Learn more.

Left ArrowRight Arrow

Hourly Observations for August 2, 2020

Temp ( °F °C ) Dew Point ( °F °C ) Humidity (%) Winds ( mph kmh ) Pressure ( in mb ) Visibility ( mi km ) Precip ( " mm )
12:51 am 00:51 Clear 76 24.4 68 20 77 77 SSE 8 13 29.92 1013 10 16.0934 0 0
1:51 am 01:51 Mostly Clear 78 25.6 65 18.3 64 64 ENE 10 17 29.91 1013 10 16.0934 0 0
2:51 am 02:51 Mostly Clear 79 26.1 61 16.1 54 54 ESE 10 17 29.9 1013 10 16.0934 0 0
3:51 am 03:51 Mostly Clear 77 25 63 17.2 62 62 E 8 13 29.92 1013 10 16.0934 0.001 0.001
4:51 am 04:51 Clear 78 25.6 61 16.1 56 56 SSE 7 11 29.93 1013 10 16.0934 0 0
5:51 am 05:51 Sunny 77 25 62 16.7 60 60 E 10 17 29.96 1014 10 16.0934 0 0
6:51 am 06:51 Sunny 78 25.6 62 16.7 58 58 SE 6 9 29.98 1015 10 16.0934 0 0
7:51 am 07:51 Sunny 79 26.1 63 17.2 58 58 SW 7 11 29.98 1015 10 16.0934 0 0
8:51 am 08:51 Sunny 80 26.7 64 17.8 58 58 NE 6 9 29.98 1015 10 16.0934 0 0
9:51 am 09:51 Mostly Sunny 87 30.6 59 15 39 39 SE 7 11 29.96 1015 10 16.0934 0 0
10:51 am 10:51 Sunny 91 32.8 58 14.4 33 33 SSW 8 13 29.94 1014 10 16.0934 0 0
11:51 am 11:51 Sunny 92 33.3 57 13.9 31 31 Calm 29.91 1013 10 16.0934 0 0
12:51 pm 12:51 Sunny 95 35 57 13.9 28 28 W 7 11 29.87 1011 10 16.0934 0 0
1:51 pm 13:51 Sunny 97 36.1 57 13.9 26 26 W 8 13 29.84 1011 10 16.0934 0 0
2:51 pm 14:51 Sunny 100 37.8 57 13.9 24 24 VRB 6 9 29.79 1009 10 16.0934 0 0
3:51 pm 15:51 Sunny 99 37.2 59 15 27 27 S 8 13 29.78 1009 10 16.0934 0 0
4:51 pm 16:51 Sunny 97 36.1 60 15.6 29 29 SW 8 13 29.78 1009 10 16.0934 0 0
5:10 pm 17:10 Sunny with Nearby Thunderstorms 94 34.4 53 11.7 25 25 W 12 19 29.68 1005 10 16.0934 0 0
5:30 pm 17:30 Mostly Sunny 93 33.9 54 12.2 27 27 N 13 20 29.7 1006 10 16.0934 0 0
5:51 pm 17:51 Mostly Cloudy 94 34.4 52 11.1 24 24 NE 13 20 29.8 1009 10 16.0934 0 0
6:51 pm 18:51 Sunny 94 34.4 49 9.4 21 21 N 8 13 29.78 1009 10 16.0934 0 0
7:51 pm 19:51 Clear 89 31.7 57 13.9 34 34 VRB 3 6 29.79 1009 10 16.0934 0 0
8:51 pm 20:51 Clear 89 31.7 51 10.6 27 27 ENE 13 20 29.86 1011 10 16.0934 0 0
9:51 pm 21:51 Clear 87 30.6 51 10.6 29 29 ENE 14 22 29.85 1011 10 16.0934 0 0
10:51 pm 22:51 Clear 84 28.9 52 11.1 33 33 SSE 9 15 29.86 1011 10 16.0934 0 0
11:51 pm 23:51 Clear 84 28.9 52 11.1 33 33 ESE 6 9 29.86 1011 10 16.0934 0 0

Powered by AerisWeather